Regional Weather Roundup
Issued by NWS

Home | Current Version | Previous Version | Graphics & Text | Print | Product List | Glossary On
Versions: 1 2 3 4 5 6 7 8 9 10 11 12 13 14 15 16 17 18 19 20 21 22 23 24 25 26 27 28 29 30 31 32 33 34 35 36 37 38 39 40 41 42 43 44 45 46 47 48 49 50
000
ASUS43 KDTX 210810
RWRMI
MICHIGAN HOURLY REGIONAL WEATHER ROUNDUP
NATIONAL WEATHER SERVICE DETROIT/PONTIAC MI
300 AM EST TUE NOV 21 2017

NOTE: "FAIR" INDICATES FEW OR NO CLOUDS BELOW 12,000 FEET WITH NO
SIGNIFICANT WEATHER AND/OR OBSTRUCTION TO VISIBILITY.

MIZ047>049-052>055-059>063-066>070-074>076-081>083-210900-
SOUTHEAST LOWER MICHIGAN

CITY           SKY/WX    TMP DP  RH WIND       PRES   REMARKS
ADRIAN         CLEAR     35  26  69 SW13      29.79F WCI  26
ALMA           CLEAR     40  28  63 S13G21    29.62F WCI  33
ANN ARBOR      CLEAR     37  26  64 S15G22    29.75F WCI  28
BAD AXE        PTCLDY    42  26  53 SW16G25   29.62S
CARO           CLOUDY    41  26  55 S16G25    29.63F
DETROIT CITY   CLEAR    N/A N/A N/A SW14G23   29.77F
DETROIT        PTCLDY    39  26  59 SW18G29   29.78F WCI  30
FLINT          PTCLDY    40  24  53 S16G25    29.68F WCI  31
GROSSE ILE     CLEAR     40  27  59 SW13G20   29.78F WCI  32
HILLSDALE      CLOUDY    37  23  56 SW13G22   29.74F WCI  29
HOWELL         CLEAR     39  26  58 S12       29.70F WCI  32

CITY           SKY/WX    TMP DP  RH WIND       PRES   REMARKS
JACKSON        PTCLDY    41  23  48 S18G25    29.72F
LAMBERTVILLE   CLEAR     41  26  54 SW13G18   29.80S
LANSING        PTCLDY    40  26  57 SW21G33   29.67F WCI  30
LAPEER         FAIR      40  25  54 SW21      29.68F WCI  30
MASON          PTCLDY    42  25  50 SW10G23   29.69F
MONROE         CLEAR     41  24  49 SW14G24   29.79S
MT. CLEMENS    CLEAR     40  26  56 SW17G26   29.74F WCI  31
PONTIAC        CLEAR     39  25  57 SW14G25   29.71F WCI  31
PORT HOPE        N/A     44  26  49 SW12G24   29.59S
PORT HURON     CLEAR     39  23  52 S13G20    29.73F WCI  32
TRI CITIES     PTCLDY    42  28  57 S18G25    29.61F
MIDLAND        FAIR      41  28  61 S13G20    29.59S
TROY           CLEAR     41  25  52 S12G22    29.76F
SAGINAW HB     PTCLDY    41  28  60 S17G25    29.62S
$$
MIZ043>046-050>051-056>058-064>065-071>073-077>080-210900-
SOUTHWEST LOWER MICHIGAN

CITY           SKY/WX    TMP DP  RH WIND       PRES   REMARKS
BATTLE CREEK   CLEAR     40  26  57 SW24G33   29.69F WCI  29
BENTON HARBOR  CLEAR     44  27  51 S14G23    29.70S
BIG RAPIDS     CLEAR     43  32  65 SW12G20   29.55S
COLDWATER      PTCLDY    39  23  53 SW13G18   29.74F WCI  31
FREMONT        FAIR      46  35  67 SW22G31   29.57F
HOLLAND        CLEAR     45  33  63 SW22G33   29.65S
GRAND RAPIDS   CLEAR     42  29  59 SW20G32   29.64S
IONIA          FAIR      40  27  58 SW15G21   29.63S WCI  32
KALAMAZOO      CLOUDY    41  24  51 S21G26    29.70F
LUDINGTON      PTCLDY    46  36  67 SW22G33   29.52S
MARSHALL       PTCLDY    40  24  53 S14G24    29.70F WCI  32
MOUNT PLEASANT CLEAR     43  28  55 SW12G18   29.58S
MUSKEGON       CLOUDY    48  36  63 SW23G37   29.60S
SOUTH HAVEN    CLEAR     44  28  54 SW14      29.68S
$$
MIZ016>042-210900-
NORTHERN LOWER MICHIGAN

CITY           SKY/WX    TMP DP  RH WIND       PRES   REMARKS
ALPENA         CLOUDY    44  33  65 S12       29.46F
BEAVER ISLAND  PTCLDY    48  40  72 SW20G28   29.34F
BELLAIRE       CLEAR     47  36  64 SW13G29   29.43S
CADILLAC       CLEAR     41  33  71 SW21G26   29.49S
CHARLEVOIX     PTCLDY    48  35  60 SW16G28   29.41S
FRANKFORT      MOCLDY    48  39  71 SW15G31   29.45S
GAYLORD        CLEAR     42  31  64 SW23G32   29.42S
GRAYLING       CLEAR     42  32  68 SW9G21    29.47S
HARBOR SPRINGS PTCLDY    47  35  62 SW18G28   29.37F
MANISTEE       PTCLDY    47  35  63 SW12G29   29.48S
OSCODA         CLOUDY    40  27  59 SW12      29.53F WCI  33
PELLSTON       CLEAR     47  34  60 SW13G26   29.37F
ROGERS CITY    PTCLDY    44  33  65 SW16G28   29.41F
TRAVERSE CITY  CLEAR     47  33  58 SW13G24   29.43F
$$
MIZ007>008-015-210900-
EASTERN UPPER MICHIGAN

CITY           SKY/WX    TMP DP  RH WIND       PRES   REMARKS
KINROSS        CLOUDY    46  38  73 SW14G22   29.31F
MACKINAC ISLAN CLOUDY    49  33  56 SW17G35   29.33F
NEWBERRY       CLOUDY    43  35  73 SW13G20   29.29R
S. S. MARIE    PTCLDY    46  37  71 SW10      29.29F
MUNISING         N/A     40  32  73 SW10G20   29.27S WCI  33
$$
MIZ004>006-011>014-085-210900-
CENTRAL UPPER MICHIGAN

CITY           SKY/WX    TMP DP  RH WIND       PRES   REMARKS
MANISTIQUE     PTCLDY    43  29  58 SW5       29.31R
ESCANABA       PTCLDY    42  31  64 SW12      29.34R
MENOMINEE      CLEAR     44  30  57 SW8       29.40R
SAWYER-GWINN   CLOUDY    31  28  90 S8        29.29R WCI  23
$$
MIZ001>003-009>011-084-210900-
WESTERN UPPER MICHIGAN

CITY           SKY/WX    TMP DP  RH WIND       PRES   REMARKS
IRON MOUNTAIN  CLOUDY    41  27  57 SW9G20    29.31R
HOUGHTON       CLOUDY    39  30  70 W25G32    29.22R WCI  28
COPPER HARBOR    N/A     42  30  62 NW13G25   29.19R
IRONWOOD       CLOUDY    37  27  67 W17G33    29.33R WCI  27
$$

ABBREVIATIONS USED IN REMARKS
   TC - TEMPERATURE IN CELSIUS
  WCI - WIND CHILL INDEX
   HX - HEAT INDEX
  VSB - VISIBILITY




USA.gov is the U.S. government's official web portal to all federal, state and local government web resources and services.